Home > Weather > Königswinter > Past weeks

Flag for Germany Past Weather in Königswinter, North Rhine-Westphalia, Germany — Yesterday and Last 2 Weeks

Now
69 °F

Overcast.


Feels Like: 69 °F
Forecast: 60 / 73 °F
Wind: 7 mph from Southwest

Location: Aachen-Orsbach

Current Time: Jul 27, 2016 at 7:21:26 PM

Latest Report: Jul 27, 2016 at 6:00 PM


Visibility: 12 mi

Pressure: 30.02 "Hg

Humidity: 59%

Dew Point: 54 °F

Location of KönigswinterLocation

Past Weather in Königswinter — Graph

°F

Königswinter Temperature Yesterday

Maximum temperature yesterday: 71 °F (at 7:00 PM)
Minimum temperature yesterday: 60 °F (at 6:00 AM)
Average temperature yesterday: 65 °F

High & Low Weather Summary for the Past Weeks

 TemperatureHumidityPressure
High92 °F (Jul 20, 4:00 PM)99% (Jul 24, 7:00 AM)30.32 "Hg (Jul 24, 7:00 AM)
Low48 °F (Jul 14, 3:00 AM)29% (Jul 20, 3:00 PM)29.85 "Hg (Jul 20, 4:00 PM)
Average67 °F75%30.10 "Hg
* Reported Jul 12 6:00 PM — Jul 27 6:00 PM, Königswinter, Weather by CustomWeather, © 2016

Note: Actual official high and low records may vary slightly from our data, if they occured in-between our weather recording intervals... More about our weather records

Advertising

Königswinter Weather History for the Previous 24 Hours

Scroll right to see more
 ConditionsComfort  
Time TempWeatherWind HumidityBarometerVisibility
6:00 PM
Wed, Jul 27
69 °FOvercast.7 mph59%30.02 "Hg12 mi
4:00 PM71 °FOvercast.7 mph60%30.03 "Hg19 mi
3:00 PM69 °FOvercast.7 mph58%30.04 "Hg9 mi
1:00 PM69 °FPartly sunny.6 mph61%30.05 "Hg12 mi
12:00 PM68 °FPartly sunny.5 mph63%30.07 "Hg9 mi
10:00 AM62 °FOvercast.5 mph74%30.08 "Hg12 mi
9:00 AM61 °FPartly sunny.3 mph80%30.09 "Hg13 mi
7:00 AM56 °FFog.3 mph96%30.09 "Hg2 mi
6:00 AM57 °FFog.5 mph95%30.08 "Hg2 mi
4:00 AM58 °FPassing clouds.3 mph93%30.10 "Hg3 mi
3:00 AM60 °FPassing clouds.3 mph87%30.10 "Hg4 mi
1:00 AM63 °FOvercast.3 mph79%30.11 "Hg12 mi
12:00 AM62 °FOvercast.2 mph83%30.11 "Hg11 mi
10:00 PM
Tue, Jul 26
65 °FOvercast.1 mph80%30.11 "Hg12 mi
9:00 PM67 °FOvercast.1 mph73%30.11 "Hg17 mi
7:00 PM71 °FOvercast.1 mph62%30.11 "Hg12 mi
Weather by CustomWeather, © 2016

See weather overviewHow to use our weather pages